Location: Newark
(45.5000°N, 11.4167°E)
Time: 06:58:17
(UTC+00:00)

Vanguard 2 - Pass Details

Date: 23 August 2019
Orbit: 554 x 2937 km, 32.9° (Epoch: 17 September)

Event Time Altitude Azimuth Distance (km) Brightness Sun altitude
Rises 18:10:59 0° 265° (W) 5,199 13.3 -1.1°
Reaches altitude 10° 18:15:40 10° 248° (WSW) 4,616 12.4 -1.9°
Maximum altitude 18:23:35 18° 212° (SSW) 4,520 11.6 -3.2°
Drops below altitude 10° 18:33:04 10° 177° (S) 5,613 11.7 -4.8°
Sets 18:39:55 0° 162° (SSE) 6,768 11.9 -5.9°
